Weather Roundup
Issued by NWS

Home | Current Version | Previous Version | Graphics & Text | Print | Product List | Glossary Off
Versions: 1 2 3 4 5 6 7 8 9 10 11 12 13 14 15 16 17 18 19 20 21 22 23 24 25 26 27 28 29 30 31 32 33 34 35 36 37 38 39 40 41 42 43 44 45 46 47 48 49 50

000
NZUS93 KARX 230810
HRRWXR

CURRENT HOURLY OBSERVATIONS ACROSS
MUCH OF THE UPPER MISSISSIPPI VALLEY
NATIONAL WEATHER SERVICE LA CROSSE WI
200 AM CST SUN NOV 23 2014


...SOUTHEAST MINNESOTA...


CITY           SKY/WX    TMP DP  RH WIND       PRES   REMARKS
ROCHESTER      CLOUDY    49  48  97 S21       29.54F FOG
ROCHESTER/MAYO CLOUDY    51  49  94 S13G22    29.53F
WINONA         CLOUDY    54  50  87 SW8       29.56F
AUSTIN         CLOUDY    48  48 100 S15       29.53F FOG
ALBERT LEA     CLOUDY    52  52 100 S14G23    29.51F
DODGE CENTER   CLOUDY    50  48  93 S17       29.51F FOG
PRESTON        CLOUDY    48  47  97 S17G23    29.57S FOG
OWATONNA       CLOUDY    52  48  87 S16       29.49F
FARIBAULT      CLOUDY    52  48  87 S9        29.49F
$$

...ELSEWHERE IN MINNESOTA...


CITY           SKY/WX    TMP DP  RH WIND       PRES   REMARKS
MINNEAPOLIS    CLOUDY    43  42  97 SE10      29.46F FOG
INTNL FALLS    CLOUDY    34  30  85 S6        29.42F WCI  29
DULUTH         DRZL/FOG  34  32  92 E13       29.46F VSB 1/4 WCI  25
RED WING         N/A     50  48  93 SW10G17   29.50F
REDWOOD FALLS  CLOUDY    45  42  89 SW12      29.41F
MANKATO        CLOUDY    52  48  87 S12G18    29.47S
WORTHINGTON    CLOUDY    48  46  93 SW14      29.45F
FAIRMONT       CLOUDY    52  46  82 S15       29.48S
$$

...SOUTHWEST WISCONSIN...


CITY           SKY/WX    TMP DP  RH WIND       PRES   REMARKS
LA CROSSE      CLOUDY    52  48  86 S13G23    29.59F
PRAIRIE DU CHI CLOUDY    52  48  84 S9        29.65S
BOSCOBEL       CLOUDY    53  48  83 S13G20    29.67S
LONE ROCK      CLOUDY    55  47  74 S7        29.69S
PLATTEVILLE    CLOUDY    48  47  97 S15       29.69F
FORT MC COY    CLOUDY    52  49  87 S9        29.61F
CAMP DOUGLAS   MOCLDY    52  52 100 S10       29.61F
VIROQUA        CLOUDY    50  50 100 S14G22    29.63R
WIS DELLS      CLOUDY    50  47  88 S16       29.66F
$$

...ELSEWHERE IN WISCONSIN...


CITY           SKY/WX    TMP DP  RH WIND       PRES   REMARKS
MILWAUKEE      PTCLDY    49  45  86 S12       29.76F
MADISON        CLOUDY    49  46  90 S10       29.71F
GREEN BAY      CLOUDY    47  46  97 S7        29.69F FOG
EAU CLAIRE     FOG       40  39  97 S5        29.54F VSB 1/4
BLACK RVR FLS  CLOUDY    50  50 100 S6        29.58F FOG
MEDFORD        FOG       38  38  99 SE9       29.58F VSB 1/4 WCI  31
WAUSAU         FOG       39  39 100 CALM      29.61F VSB 1/4
WIS RAPIDS     CLOUDY    47  45  93 S9        29.64F FOG
MARSHFIELD     FOG       42  41  96 S6        29.60F VSB 1/4
RICE LAKE      FOG       37  36  98 SE10      29.53F VSB<1/4 WCI  29
$$

...NORTHEAST IOWA...


CITY           SKY/WX    TMP DP  RH WIND       PRES   REMARKS
DECORAH        CLOUDY    52  48  87 SW12G20   29.60F
MASON CITY     CLOUDY    50  49  96 S17G23    29.55F
CHARLES CITY   CLOUDY    50  50 100 S14G21    29.58F FOG
OELWEIN        CLOUDY    50  48  93 S15       29.62F
$$

...ELSEWHERE IN IOWA...


CITY           SKY/WX    TMP DP  RH WIND       PRES   REMARKS
DES MOINES     CLOUDY    54  50  86 S12       29.60F
IOWA CITY      CLOUDY    52  50  93 S12       29.70F
FORT DODGE     CLOUDY    52  48  87 S16       29.54F
$$

...NORTHERN ILLINOIS...


CITY           SKY/WX    TMP DP  RH WIND       PRES   REMARKS
CHICAGO-OHARE  CLOUDY    50  46  86 S16       29.81F
CHICAGO-MIDWAY CLOUDY    51  47  86 S13       29.83F
MOLINE         CLOUDY    53  48  83 S10       29.72F
ROCKFORD       CLOUDY    48  46  93 S12       29.79F FOG
PEORIA         CLOUDY    52  47  83 S10       29.79F
$$

NOTE: "FAIR" INDICATES FEW OR NO CLOUDS BELOW 12,000 FEET WITH NO
SIGNIFICANT WEATHER AND/OR OBSTRUCTIONS TO VISIBILITY. WIND
SPEEDS ARE IN MILES-PER-HOUR.



USA.gov is the U.S. government's official web portal to all federal, state and local government web resources and services.